TimeEST,TemperatureF,Dew PointF,Humidity,Sea Level PressureIn,VisibilityMPH,Wind Direction,Wind SpeedMPH,Gust SpeedMPH,PrecipitationIn,Events,Conditions,WindDirDegrees,DateUTC
12:53 AM,66.9,64.9,93,30.04,10.0,WNW,3.5,-,N/A,,Clear,300,2012-11-17 05:53:00
1:53 AM,66.9,64.9,93,30.03,10.0,North,8.1,-,N/A,,Clear,360,2012-11-17 06:53:00
2:53 AM,66.9,64.9,93,30.02,10.0,NNW,5.8,-,0.01,,Scattered Clouds,340,2012-11-17 07:53:00
3:53 AM,64.9,64.0,97,30.02,10.0,NNW,4.6,-,N/A,,Clear,330,2012-11-17 08:53:00
4:53 AM,64.9,64.0,97,30.04,10.0,NNW,3.5,-,N/A,,Partly Cloudy,330,2012-11-17 09:53:00
5:04 AM,64.4,64.4,100,30.05,10.0,North,3.5,-,N/A,,Mostly Cloudy,350,2012-11-17 10:04:00
5:12 AM,66.2,64.4,94,30.05,10.0,North,5.8,-,N/A,,Mostly Cloudy,360,2012-11-17 10:12:00
5:19 AM,66.2,64.4,94,30.05,10.0,North,9.2,-,N/A,,Mostly Cloudy,10,2012-11-17 10:19:00
5:31 AM,66.2,64.4,94,30.05,10.0,North,4.6,-,N/A,,Mostly Cloudy,360,2012-11-17 10:31:00
5:53 AM,66.0,64.0,93,30.06,10.0,North,8.1,-,N/A,,Overcast,360,2012-11-17 10:53:00
6:53 AM,64.9,64.0,97,30.06,10.0,North,4.6,-,N/A,,Partly Cloudy,360,2012-11-17 11:53:00
7:53 AM,68.0,64.9,90,30.09,10.0,NE,5.8,-,N/A,,Scattered Clouds,40,2012-11-17 12:53:00
8:53 AM,71.1,66.0,84,30.09,10.0,NE,8.1,-,N/A,,Scattered Clouds,50,2012-11-17 13:53:00
9:06 AM,71.6,66.2,83,30.10,10.0,NNE,9.2,-,N/A,,Mostly Cloudy,30,2012-11-17 14:06:00
9:13 AM,73.4,66.2,78,30.10,10.0,NNE,12.7,-,N/A,,Scattered Clouds,30,2012-11-17 14:13:00
9:53 AM,75.9,64.9,69,30.09,10.0,NE,11.5,-,N/A,,Clear,40,2012-11-17 14:53:00
10:53 AM,78.1,63.0,60,30.09,10.0,ENE,13.8,-,N/A,,Clear,60,2012-11-17 15:53:00
11:53 AM,78.1,64.0,62,30.07,10.0,ENE,10.4,-,N/A,,Mostly Cloudy,60,2012-11-17 16:53:00
12:53 PM,81.0,63.0,54,30.05,10.0,Variable,6.9,-,N/A,,Mostly Cloudy,0,2012-11-17 17:53:00
1:53 PM,78.1,63.0,60,30.03,10.0,NE,10.4,-,N/A,,Mostly Cloudy,50,2012-11-17 18:53:00
2:53 PM,81.0,64.0,56,30.03,10.0,East,9.2,-,N/A,,Scattered Clouds,100,2012-11-17 19:53:00
3:53 PM,78.1,64.0,62,30.02,10.0,East,12.7,-,N/A,,Scattered Clouds,90,2012-11-17 20:53:00
4:53 PM,75.9,64.0,67,30.03,10.0,East,10.4,-,N/A,,Partly Cloudy,80,2012-11-17 21:53:00
5:53 PM,73.9,63.0,68,30.04,10.0,NE,6.9,-,N/A,,Clear,50,2012-11-17 22:53:00
6:53 PM,73.0,63.0,71,30.05,10.0,NE,4.6,-,N/A,,Partly Cloudy,50,2012-11-17 23:53:00
7:53 PM,73.0,63.0,71,30.05,10.0,NE,5.8,-,N/A,,Clear,40,2012-11-18 00:53:00
8:53 PM,73.0,63.0,71,30.06,10.0,NNE,4.6,-,N/A,,Clear,20,2012-11-18 01:53:00
9:53 PM,71.1,63.0,75,30.06,10.0,North,4.6,-,N/A,,Partly Cloudy,10,2012-11-18 02:53:00
10:53 PM,70.0,64.0,81,30.07,10.0,North,5.8,-,N/A,,Mostly Cloudy,360,2012-11-18 03:53:00
11:53 PM,69.1,64.9,87,30.06,10.0,North,6.9,-,N/A,,Clear,360,2012-11-18 04:53:00